#timestamp,LO_Frequency,Hit,StdDev 
1654498815.4,286046998.1,N
1654498835.2,286046998.6,N
1654498855.1,286047000.0,N
1654498856.0,286047000.0,N
1654498875.8,286046998.2,N
1654498895.6,286047002.2,N
1654498915.5,286047000.1,N
1654498935.3,286047002.4,N
1654498955.1,286047000.2,N
1654498975.9,286047000.6,N
1654498995.7,286047000.9,N
1654499015.6,286047000.1,N
1654499035.4,286047001.7,N
1654499055.2,286047002.0,N
1654499075.1,286047002.3,N
1654499076.0,286047002.3,N
1654499095.8,286047002.2,N
1654499115.6,286047002.5,N
1654499135.5,286047000.2,N
1654499155.3,286047002.0,N
1654499175.2,286047000.3,N
1654499195.9,286047002.7,N
1654499215.7,286047000.6,N
1654499235.6,286047000.1,N
1654499255.4,286047002.6,N
1654499275.2,286047000.0,N
1654499295.1,286046998.6,N
1654499296.0,286046998.6,N
1654499315.8,286046998.3,N
1654499335.7,286046998.9,N
1654499355.5,286046999.1,N
1654499375.3,286046999.1,N
1654499395.2,286046996.9,N
1654499415.0,286046996.6,N
1654499415.9,286046996.6,N
1654499435.8,286046996.8,N
1654499455.6,286046994.9,N
1654499475.5,286046997.1,N
1654499495.3,286046997.0,N
1654499515.1,286046999.4,N
1654499535.9,286046997.4,N
1654499555.7,286046998.0,N
1654499575.5,286046995.4,N
1654499595.4,286046995.0,N
1654499615.2,286046997.8,N
1654499635.0,286046997.1,N
1654499636.0,286046997.1,N
1654499655.8,286046997.4,N
1654499675.6,286046999.2,N
1654499695.5,286046996.6,N
1654499715.3,286046997.0,N
1654499735.1,286046999.2,N
1654499755.9,286046996.9,N
1654499775.7,286046997.0,N
1654499795.5,286046997.6,N
1654499815.4,286046999.5,N
1654499835.2,286046996.8,N
1654499855.1,286046996.7,N
1654499856.0,286046996.7,N
1654499875.8,286046996.9,N
1654499895.6,286046999.3,N
1654499915.5,286046996.6,N
1654499935.3,286046999.2,N
1654499955.2,286046998.2,N
1654499975.9,286046997.2,N
1654499995.7,286046995.0,Y
1654500015.6,286046998.2,P
1654500035.4,286046998.4,P
1654500055.2,286047001.0,N
1654500075.1,286047000.9,N
1654500076.0,286047000.9,N
1654500095.8,286046999.9,N
1654500115.7,286047000.2,N
1654500135.5,286047000.7,N
1654500155.3,286047002.7,N
1654500175.2,286047002.4,N
1654500195.0,286047002.4,N
1654500195.9,286047002.4,N
1654500215.8,286046999.9,N
1654500235.6,286047000.1,N
1654500255.4,286047000.5,N
1654500275.3,286047000.8,N
1654500295.1,286046998.1,N
1654500315.9,286047000.0,N
1654500335.7,286047000.6,N
1654500355.5,286047000.3,N
1654500375.4,286046998.4,N
1654500395.2,286047001.2,N
1654500415.1,286047000.1,N
1654500416.0,286047000.1,N
1654500435.8,286047001.2,N
1654500455.6,286046998.7,N
1654500475.5,286046999.1,N
1654500495.3,286046999.6,N
1654500545.2,286046997.3,E
1654500555.1,286046999.6,N
1654500575.8,286046998.8,P
1654500595.7,286046998.5,P
1654500615.5,286047000.9,N
1654500635.4,286047000.3,N
1654500655.2,286046999.8,N
1654500675.0,286047000.2,N
1654500675.9,286047000.2,N
1654500695.8,286047002.6,Y
1654500715.6,286047001.9,P
1654500735.4,286047002.3,N
1654500755.3,286047001.6,N
1654500775.1,286047004.0,Y
1654500795.9,286047001.7,P
1654500815.7,286047001.5,P
1654500835.5,286047001.9,P
1654500855.4,286047001.8,Y
1654500875.2,286047000.2,P
1654500895.1,286047002.3,P
1654500896.0,286047002.3,N
1654500915.8,286046999.9,N
1654500935.6,286047000.5,N
1654500955.5,286046998.1,N
1654500975.3,286047002.3,N
1654500995.2,286047002.3,N
1654501015.9,286047001.5,N
1654501035.7,286047004.2,Y
1654501055.6,286047001.6,P
1654501075.4,286047002.1,P
1654501095.2,286047000.5,N
1654501115.1,286047000.5,N
1654501116.0,286047000.5,N
1654501135.8,286046998.1,Y
1654501155.7,286047000.8,P
1654501175.5,286047001.2,P
1654501195.3,286047000.8,P
1654501215.2,286047000.3,N
1654501235.0,286046999.8,N
1654501235.9,286046999.8,N
1654501255.8,286047000.3,N
1654501275.6,286047000.4,N
1654501295.4,286047000.7,N
1654501315.3,286047001.0,N
1654501335.1,286046998.1,Y
1654501355.8,286046998.2,P
1654501375.7,286046999.3,N
1654501395.5,286046999.1,N
1654501415.4,286046999.5,N
1654501435.2,286046999.4,N
1654501455.0,286046998.3,N
1654501455.9,286046998.3,N
1654501475.8,286046998.4,N
1654501495.6,286047000.4,N
1654501515.4,286047000.9,N
1654501535.3,286047000.8,N
1654501555.1,286046998.5,N
1654501575.9,286046998.2,N
1654501595.7,286046999.3,N
1654501615.5,286046998.2,N
1654501635.4,286046999.2,N
1654501655.2,286046996.6,Y
1654501675.0,286047001.2,P
1654501676.0,286047001.2,N
1654501695.8,286047000.8,N
1654501715.6,286047000.8,N
1654501735.5,286047000.1,N
1654501755.3,286046999.8,N
1654501775.1,286047002.8,Y
1654501795.9,286047001.1,P
1654501845.7,286046999.9,E
1654501855.7,286047000.2,N
1654501875.5,286047000.0,P
1654501895.3,286047000.6,P
1654501915.2,286047000.4,N
1654501935.0,286046998.1,Y
1654501935.9,286046998.1,P
1654501955.8,286047001.1,N
1654501975.6,286047000.5,N
1654501995.4,286046998.1,N
1654502015.3,286047000.7,N
1654502035.1,286047000.4,N
1654502055.9,286046999.8,N
1654502075.7,286047002.7,N
1654502095.5,286047002.7,N
1654502115.4,286047002.6,N
1654502135.2,286046999.9,N
1654502155.0,286047001.0,N
1654502155.9,286047001.0,N
1654502175.8,286047000.6,N
1654502195.6,286047002.8,N
1654502215.5,286047002.7,N
1654502235.3,286047002.7,N
1654502255.1,286047002.0,N
1654502275.9,286047002.6,N
1654502295.7,286047002.3,N
1654502315.5,286047002.3,N
1654502335.4,286047000.0,N
1654502355.2,286047000.5,N
1654502375.1,286046998.7,N
1654502376.0,286046998.7,N
1654502395.8,286047000.7,N
